Precipitable_Water
2.23 2.32 2.19 1.87 1.13 1.03 0.84 0.93 1.16 0.99 0.96 1.18 1.23 1.11 1.09 1.24 0.93 0.79 1.54 1.53 1.59 1.69 1.80 1.86 1.87 1.86 1.90 1.92 1.93 1.91 1.85 1.78 1.75 1.76 1.78 1.74 1.75 1.82 1.87 1.94 2.10 2.10 2.08 2.03 1.95 1.78 1.62 1.65 1.76
2.17 2.08 1.93 1.44 0.95 0.74 0.76 1.04 1.00 1.02 1.05 1.21 1.15 1.25 1.17 1.10 1.47 1.50 1.36 1.58 1.62 1.68 1.76 1.82 1.88 1.90 1.88 1.88 1.89 1.86 1.81 1.76 1.73 1.72 1.75 1.78 1.85 1.88 1.87 2.08 2.19 2.13 2.06 1.99 1.75 1.88 1.67 1.66 1.65
2.11 2.14 1.47 1.11 0.88 0.71 0.71 0.94 1.04 1.14 1.22 1.18 1.07 1.29 1.25 1.22 1.53 1.47 1.53 1.59 1.68 1.68 1.76 1.81 1.86 1.88 1.87 1.85 1.83 1.83 1.80 1.80 1.80 1.87 1.93 1.90 1.94 1.88 1.99 2.09 2.22 2.20 2.12 1.66 2.06 1.96 1.71 1.65 1.89
2.00 1.87 1.59 0.96 0.88 0.97 1.03 1.13 1.21 1.15 1.17 1.22 1.22 1.09 1.25 1.56 1.50 1.48 1.56 1.59 1.60 1.69 1.78 1.81 1.85 1.88 1.84 1.84 1.81 1.77 1.75 1.86 1.84 1.96 1.97 1.95 1.86 1.97 2.00 2.03 2.24 2.19 2.19 1.74 2.06 1.89 1.81 1.85 1.83
1.97 1.50 1.03 0.93 0.97 1.11 1.21 1.29 1.33 1.15 1.11 1.12 1.21 0.99 1.03 1.43 1.60 1.59 1.52 1.56 1.55 1.67 1.79 1.83 1.85 1.86 1.87 1.85 1.83 1.80 1.77 1.81 1.81 1.93 1.97 1.96 1.89 1.96 1.84 2.03 2.16 2.13 2.03 1.77 1.92 1.86 2.06 1.98 1.96
1.35 1.26 0.91 0.85 0.91 1.09 1.19 1.34 1.29 1.21 1.26 1.21 1.09 0.98 1.10 1.49 1.46 1.54 1.56 1.53 1.65 1.63 1.79 1.85 1.90 1.87 1.90 1.88 1.87 1.86 1.81 1.76 1.80 1.87 1.93 1.86 1.90 1.91 1.94 1.99 2.12 2.15 2.01 1.78 1.95 1.96 2.01 2.03 2.06
1.21 0.99 0.80 0.82 0.89 0.97 1.07 1.31 1.17 1.24 1.26 1.20 1.23 0.96 1.20 1.33 1.52 1.64 1.63 1.61 1.69 1.72 1.79 1.86 1.88 1.91 1.89 1.91 1.89 1.92 1.87 1.71 1.77 1.79 1.90 1.83 1.87 1.99 1.99 2.00 2.05 2.08 1.91 1.77 2.02 1.97 2.01 2.01 1.99
1.23 1.09 0.82 0.83 0.82 0.84 1.15 1.23 1.41 1.30 1.22 1.43 1.34 0.96 1.02 1.33 1.55 1.64 1.69 1.64 1.65 1.71 1.72 1.84 1.88 1.88 1.89 1.93 2.00 2.01 1.87 1.75 1.87 1.77 1.79 2.00 2.01 2.06 2.07 2.04 2.03 2.03 2.03 1.93 2.04 2.03 2.00 1.98 1.99
1.20 0.86 0.75 0.86 0.87 0.92 1.15 1.13 1.34 1.46 1.27 1.26 1.23 1.28 1.35 1.55 1.61 1.54 1.54 1.56 1.57 1.62 1.65 1.76 1.77 1.83 1.83 1.94 2.09 2.05 1.90 1.84 1.89 1.80 1.87 1.90 1.94 2.10 2.06 2.08 2.01 2.07 2.08 2.02 2.08 2.00 1.94 1.95 2.06
0.88 0.78 0.72 0.97 1.08 0.99 1.10 1.09 1.14 1.15 1.11 1.11 1.13 1.39 1.52 1.53 1.50 1.34 1.31 1.31 1.36 1.43 1.54 1.67 1.68 1.74 1.78 1.88 2.08 2.02 1.92 1.93 1.84 1.95 1.90 1.91 1.83 1.93 2.04 2.11 2.11 2.08 2.11 2.08 2.06 2.01 1.98 1.98 2.06
0.84 0.71 0.84 0.96 1.10 1.12 1.09 1.08 1.10 1.01 0.96 1.03 0.98 1.12 1.37 1.40 1.38 1.32 1.30 1.33 1.27 1.38 1.48 1.57 1.64 1.73 1.71 1.77 1.95 1.94 1.86 2.03 1.90 1.95 2.00 2.01 1.96 1.92 1.98 2.08 2.12 2.11 2.12 2.11 2.09 2.05 1.98 1.95 2.02
0.67 0.81 0.85 0.97 1.05 1.07 1.07 1.16 1.04 1.09 0.98 1.14 1.17 1.17 1.26 1.27 1.29 1.28 1.26 1.34 1.32 1.34 1.41 1.50 1.61 1.68 1.70 1.74 1.84 1.85 1.79 1.84 1.95 1.96 2.15 2.16 1.99 1.85 1.82 1.88 1.96 2.05 2.11 2.11 2.06 2.08 2.06 1.95 2.01
0.63 0.60 0.72 0.85 0.99 1.10 1.13 1.08 1.04 1.01 1.18 1.28 1.29 1.25 1.20 1.20 1.29 1.34 1.38 1.52 1.51 1.49 1.58 1.64 1.67 1.64 1.65 1.67 1.71 1.76 1.76 1.70 1.93 1.93 2.06 2.11 2.10 2.01 1.90 1.83 1.83 1.91 1.95 2.03 2.04 2.04 2.04 2.01 2.03
0.56 0.65 0.67 0.80 0.94 1.08 1.01 1.04 1.07 1.15 1.35 1.26 1.25 1.22 1.29 1.27 1.28 1.37 1.43 1.48 1.54 1.62 1.61 1.68 1.67 1.68 1.65 1.58 1.62 1.64 1.70 1.65 1.77 1.89 1.91 2.13 2.12 2.08 2.01 1.97 1.96 1.79 1.92 1.99 1.98 2.01 2.02 2.04 2.09
0.55 0.56 0.64 0.80 0.94 0.96 1.06 0.86 0.86 1.12 1.28 1.26 1.20 1.25 1.34 1.39 1.43 1.33 1.40 1.50 1.61 1.70 1.77 1.73 1.78 1.72 1.58 1.56 1.56 1.60 1.62 1.57 1.60 1.77 1.94 2.06 2.13 2.10 2.04 2.00 1.96 1.82 1.85 2.01 2.14 2.10 2.09 2.13 2.14
0.51 0.53 0.50 0.64 0.88 0.98 0.96 0.63 0.85 1.06 1.08 1.15 1.22 1.24 1.31 1.39 1.44 1.51 1.53 1.61 1.71 1.79 1.86 1.90 1.83 1.64 1.56 1.50 1.50 1.51 1.59 1.56 1.54 1.66 1.85 2.01 2.07 2.11 2.08 1.92 1.89 1.91 1.90 2.08 2.12 2.19 2.20 2.17 2.13
0.48 0.42 0.48 0.58 0.71 0.70 0.69 0.55 0.77 0.94 0.97 1.01 1.16 1.24 1.30 1.35 1.47 1.55 1.58 1.60 1.66 1.79 1.96 2.05 2.03 1.81 1.65 1.64 1.52 1.49 1.54 1.56 1.59 1.68 1.73 1.82 1.95 2.04 2.02 2.01 1.92 2.01 2.02 2.07 2.11 2.14 2.19 2.16 2.18
0.36 0.41 0.47 0.50 0.54 0.53 0.50 0.51 0.62 0.81 0.86 0.90 1.06 1.20 1.29 1.33 1.37 1.55 1.61 1.67 1.68 1.83 1.98 2.11 2.06 2.00 1.81 1.73 1.56 1.44 1.53 1.59 1.70 1.77 1.85 1.88 1.90 1.94 1.98 1.95 2.00 2.08 2.02 2.05 2.07 2.09 2.16 2.21 2.21
0.45 0.42 0.46 0.53 0.50 0.44 0.35 0.38 0.53 0.66 0.80 0.86 0.99 1.10 1.16 1.26 1.46 1.57 1.67 1.66 1.61 1.75 1.89 1.98 2.01 1.97 1.94 1.82 1.57 1.38 1.39 1.54 1.67 1.74 1.87 1.92 2.01 2.05 2.04 1.95 1.94 1.94 1.92 2.01 2.12 2.13 2.12 2.13 2.22
0.45 0.38 0.43 0.48 0.45 0.40 0.34 0.37 0.45 0.67 0.73 0.80 0.88 0.99 1.05 1.22 1.37 1.49 1.57 1.66 1.49 1.58 1.77 1.91 1.96 1.99 1.97 1.88 1.71 1.59 1.65 1.69 1.65 1.73 1.78 1.90 1.94 1.96 2.05 2.02 2.02 2.03 1.98 2.01 2.04 2.07 2.03 2.08 2.19
0.32 0.34 0.37 0.39 0.42 0.36 0.35 0.38 0.43 0.55 0.72 0.80 0.86 0.95 1.04 1.09 1.20 1.35 1.46 1.56 1.50 1.45 1.57 1.76 1.83 1.98 1.88 1.85 1.77 1.61 1.68 1.66 1.59 1.58 1.63 1.69 1.85 1.91 1.94 1.97 2.05 2.08 2.02 1.92 2.00 2.06 2.02 1.94 2.09
0.23 0.31 0.31 0.35 0.33 0.29 0.32 0.25 0.37 0.43 0.50 0.59 0.66 0.79 0.94 1.08 1.20 1.29 1.37 1.43 1.36 1.37 1.54 1.65 1.75 1.80 1.92 1.98 1.88 1.70 1.53 1.46 1.58 1.62 1.65 1.65 1.77 1.82 1.94 1.95 1.97 2.04 2.06 1.95 2.03 2.12 2.07 2.03 1.90
0.19 0.25 0.27 0.30 0.29 0.27 0.31 0.28 0.30 0.40 0.40 0.43 0.51 0.68 0.84 1.01 1.18 1.22 1.29 1.35 1.24 1.40 1.43 1.54 1.66 1.71 1.73 1.74 1.81 1.78 1.74 1.75 1.80 1.76 1.72 1.84 1.94 2.02 2.02 2.00 1.97 1.97 2.03 2.01 2.01 2.05 2.09 2.05 1.98
0.19 0.20 0.27 0.28 0.27 0.24 0.23 0.25 0.26 0.34 0.40 0.42 0.50 0.66 0.80 0.97 1.10 1.21 1.35 1.29 1.24 1.29 1.38 1.44 1.50 1.56 1.66 1.66 1.69 1.63 1.63 1.69 1.67 1.70 1.71 1.77 1.91 1.97 1.99 1.99 2.00 1.98 2.01 2.01 2.06 2.13 2.12 2.10 2.06
0.19 0.18 0.19 0.21 0.21 0.17 0.22 0.23 0.23 0.32 0.38 0.41 0.51 0.68 0.80 0.94 1.03 1.13 1.22 1.09 1.10 1.09 1.21 1.27 1.33 1.36 1.53 1.57 1.61 1.62 1.63 1.67 1.67 1.69 1.68 1.73 1.79 1.87 1.93 2.01 2.04 2.03 2.08 2.10 2.11 2.14 2.17 2.16 2.07
0.19 0.18 0.16 0.14 0.14 0.17 0.21 0.15 0.16 0.27 0.36 0.54 0.67 0.72 0.82 0.90 1.01 1.04 1.03 0.96 0.99 0.98 1.08 1.16 1.19 1.24 1.38 1.46 1.51 1.63 1.70 1.68 1.69 1.71 1.72 1.74 1.72 1.80 1.91 2.00 2.06 2.10 2.13 2.13 2.14 2.17 2.23 2.27 2.31
0.16 0.18 0.21 0.17 0.17 0.14 0.15 0.17 0.18 0.23 0.34 0.44 0.48 0.55 0.69 0.92 0.99 1.06 0.92 0.96 0.94 0.93 0.94 0.99 1.05 1.16 1.29 1.36 1.50 1.62 1.70 1.70 1.66 1.69 1.80 1.83 1.85 1.78 1.82 2.00 2.05 2.12 2.13 2.17 2.19 2.10 2.05 2.07 2.04
0.16 0.20 0.17 0.18 0.13 0.11 0.14 0.14 0.14 0.19 0.28 0.33 0.30 0.30 0.45 0.86 1.00 1.01 0.88 1.00 1.00 0.95 1.02 1.10 1.15 1.15 1.26 1.39 1.54 1.62 1.65 1.72 1.74 1.76 1.72 1.78 1.87 1.90 1.89 1.92 1.98 2.08 2.21 2.24 2.19 2.11 2.12 2.03 2.12
0.18 0.16 0.17 0.17 0.17 0.14 0.13 0.14 0.21 0.19 0.25 0.28 0.29 0.32 0.44 0.61 0.96 1.08 1.00 1.06 1.07 1.06 1.05 1.05 1.09 1.18 1.26 1.34 1.45 1.54 1.63 1.70 1.73 1.68 1.70 1.69 1.72 1.81 1.86 1.89 1.94 2.04 2.01 1.97 2.01 2.08 2.10 2.02 2.05
0.24 0.19 0.20 0.17 0.16 0.18 0.17 0.15 0.22 0.26 0.33 0.34 0.33 0.35 0.44 0.67 0.81 1.08 1.05 1.10 1.09 1.08 1.10 1.07 1.08 1.14 1.28 1.38 1.45 1.46 1.55 1.69 1.67 1.64 1.67 1.75 1.70 1.71 1.81 1.97 2.00 2.01 2.00 1.99 1.92 1.90 1.93 1.92 1.94
Wind_Speed
11 10 8 9 8 8 9 9 7 10 9 6 11 7 7 6 5 5 8 15 18 18 17 16 15 15 14 14 14 13 13 13 12 12 11 11 11 11 12 12 13 15 16 15 16 17 17 18 17
12 11 9 9 10 10 9 7 7 8 7 7 9 6 4 4 4 6 13 16 18 18 16 15 15 15 14 14 13 13 13 12 12 11 11 11 11 12 12 12 14 14 15 15 16 16 16 16 16
12 10 8 8 10 10 8 8 7 6 7 8 5 5 4 4 4 10 13 18 18 17 16 15 15 15 14 14 13 13 12 12 11 11 11 12 12 12 12 13 13 15 15 15 15 15 16 15 15
8 8 7 8 10 8 7 8 8 9 7 5 4 5 5 2 7 12 17 18 17 17 16 15 15 15 14 13 13 12 11 11 11 11 12 13 12 12 12 13 14 15 14 14 14 14 14 14 14
8 8 8 8 7 6 6 7 7 7 7 5 4 5 6 6 9 15 17 17 17 16 16 15 15 14 14 13 12 11 11 10 11 12 13 13 12 12 12 13 14 14 13 13 13 13 13 13 12
8 10 10 8 8 7 8 6 7 4 6 6 6 6 5 7 12 15 16 16 16 15 15 15 14 14 13 12 11 10 10 10 10 11 12 12 12 12 12 12 12 12 12 12 12 13 12 11 11
8 8 9 8 8 8 8 8 5 5 5 4 5 5 5 7 11 13 14 15 15 15 14 14 14 13 12 11 10 10 9 9 10 10 10 10 11 11 11 11 11 11 11 11 11 11 11 10 10
7 7 7 7 8 8 7 5 5 5 5 6 4 3 4 7 12 13 14 14 15 14 13 13 13 13 12 11 10 9 9 9 9 9 9 9 10 10 10 10 10 10 10 10 10 10 9 9 8
5 5 5 6 6 7 6 6 5 5 5 5 4 3 4 10 12 14 14 14 14 14 13 13 12 12 12 11 10 9 8 9 9 9 9 9 9 9 9 9 10 9 9 9 9 9 8 7 7
4 4 3 4 4 6 6 5 5 5 5 6 7 6 8 10 12 14 15 15 14 14 14 13 12 12 12 11 10 9 8 8 9 8 9 9 8 8 8 8 9 8 8 8 8 7 7 7 6
4 3 3 4 3 5 4 4 4 4 4 3 4 6 9 10 11 14 14 14 14 14 14 14 13 12 12 11 10 9 8 8 9 9 9 8 8 8 8 7 7 7 7 7 7 7 6 6 5
3 3 4 4 3 3 4 4 5 2 4 5 5 7 9 10 10 13 14 14 14 14 14 14 14 12 12 11 11 10 9 9 9 9 9 8 7 8 8 7 7 7 6 6 6 6 6 5 4
4 7 7 6 4 4 3 3 4 4 3 4 7 8 9 9 10 11 12 12 12 13 13 14 14 14 13 12 11 10 10 10 9 9 9 7 8 8 8 7 7 6 6 5 5 5 5 4 4
5 8 7 4 3 2 3 2 3 3 4 5 6 7 7 8 9 10 11 12 12 12 12 13 14 15 14 13 12 11 11 10 10 9 9 8 8 7 8 8 7 7 6 5 4 4 4 5 4
5 5 4 5 3 2 4 4 3 1 2 4 5 6 6 6 7 9 10 11 11 10 11 13 14 15 15 14 13 12 11 11 10 10 10 9 8 7 7 7 8 8 7 5 4 4 4 5 6
4 2 4 6 3 3 3 5 4 2 4 4 6 6 6 7 7 8 9 10 10 10 10 11 13 16 16 15 14 13 12 11 11 11 11 11 10 8 7 7 8 8 7 7 5 5 4 5 3
4 3 5 5 4 4 3 8 5 4 6 6 7 8 8 8 8 8 9 10 10 10 10 11 13 16 17 16 15 14 13 12 12 12 11 11 11 10 8 8 8 8 8 8 7 6 5 6 6
6 7 5 6 7 6 8 10 8 6 7 8 9 9 9 9 10 10 10 10 10 11 10 10 9 18 17 15 15 14 13 13 13 13 12 12 11 11 10 9 9 9 9 9 9 8 7 6 6
8 8 10 8 7 8 8 11 12 7 7 8 9 9 11 11 10 11 11 11 11 11 11 10 11 14 16 16 15 14 14 14 13 14 13 12 12 11 11 10 9 9 9 10 9 9 8 8 7
11 11 12 9 9 8 11 11 9 5 6 9 10 11 12 12 12 11 12 11 12 12 12 12 11 14 16 15 15 14 14 14 14 14 13 13 13 12 12 12 11 10 10 9 9 9 9 9 8
13 12 13 12 11 8 10 9 7 5 6 7 10 12 13 14 13 12 12 13 12 13 13 13 13 14 15 15 14 14 13 14 15 15 14 14 14 14 14 13 13 12 11 11 11 10 9 9 9
16 12 12 12 11 9 9 8 8 8 9 7 9 11 12 15 16 14 13 13 13 13 13 13 13 13 15 17 16 15 15 14 15 15 15 15 14 13 14 14 14 14 13 13 12 11 11 11 11
14 12 12 11 11 10 9 9 9 9 9 9 8 9 11 13 17 17 15 13 13 13 13 13 14 14 14 14 16 16 16 16 15 15 15 16 15 15 14 15 15 14 14 14 14 13 13 12 13
11 12 11 10 11 12 9 11 10 9 7 10 9 9 8 9 14 16 16 14 14 14 14 14 14 14 14 14 14 15 15 15 15 16 15 16 16 16 16 16 16 16 16 15 15 16 16 15 15
13 13 12 14 13 13 8 10 11 12 11 11 13 9 7 7 11 14 15 14 14 14 15 14 14 14 14 14 14 15 15 14 15 15 15 16 16 16 17 17 17 17 18 18 18 18 19 18 17
17 17 14 15 14 13 10 10 10 11 12 11 8 6 6 7 10 13 14 14 13 14 14 14 13 13 13 13 14 14 15 15 15 14 14 15 15 16 17 17 18 18 19 19 20 21 21 22 23
15 16 13 13 11 13 13 12 13 9 9 7 6 5 6 6 9 12 15 14 13 13 14 14 13 12 12 11 11 12 13 14 15 15 15 15 15 15 17 18 18 18 19 20 19 19 21 24 22
16 14 14 14 15 16 12 12 11 11 10 8 9 9 9 8 9 12 14 14 13 14 13 13 12 12 11 10 10 10 10 11 12 13 15 15 16 15 16 17 18 18 18 19 20 18 19 18 15
13 14 12 12 13 14 14 12 9 9 10 12 12 10 9 9 11 13 14 15 14 14 14 13 12 12 11 10 10 10 10 10 10 11 11 12 13 14 14 14 15 15 13 13 14 17 15 15 15
14 14 15 15 14 13 12 13 10 9 11 12 14 13 9 7 11 13 16 16 16 15 15 14 13 12 11 10 10 9 9 9 10 10 11 11 11 11 13 12 13 13 15 15 15 14 14 13 13
Wind_Direction
105 103 92 76 81 79 76 78 72 93 111 92 125 90 113 88 115 77 123 142 144 144 142 140 138 134 131 127 122 116 112 108 107 109 112 115 114 111 109 109 111 111 112 110 106 108 110 114 115
100 96 86 80 81 76 67 72 80 90 96 92 121 73 95 86 107 100 134 143 146 146 144 142 139 136 133 130 125 119 113 108 106 108 114 116 116 113 111 110 113 118 115 113 111 110 113 116 117
93 80 77 78 80 75 74 64 76 87 103 108 106 59 60 71 109 134 138 144 145 146 146 143 141 139 135 131 128 122 115 109 103 106 116 117 117 115 113 113 117 120 117 115 115 113 113 118 116
82 71 76 77 76 75 64 61 76 93 93 100 76 63 58 57 127 141 144 145 146 147 148 146 143 141 138 134 129 125 119 111 103 104 116 119 118 115 115 117 118 120 117 117 117 117 117 117 116
74 68 70 84 62 58 53 74 80 90 89 96 81 68 59 90 126 140 145 148 148 148 150 149 146 144 142 138 133 128 124 116 109 109 115 117 118 116 117 120 124 121 119 119 120 120 119 119 119
80 66 71 69 53 53 54 90 85 73 78 79 65 77 68 112 134 144 149 151 152 151 151 154 153 149 148 144 138 133 130 124 118 115 119 121 119 118 119 123 124 125 123 125 123 122 122 122 120
71 69 69 63 50 46 53 91 89 69 56 50 78 70 82 130 146 150 154 156 157 155 154 156 159 158 156 154 149 142 138 134 127 124 123 125 125 122 122 126 127 127 125 129 129 127 124 121 118
68 68 69 58 43 39 54 64 57 54 49 64 75 70 124 148 155 157 160 161 162 162 161 160 161 162 160 158 156 150 146 144 138 133 129 128 132 127 125 127 130 131 129 132 135 133 129 127 124
61 52 44 45 35 30 50 47 47 38 69 40 49 59 124 147 156 162 163 166 169 170 169 168 167 166 165 163 160 155 151 153 150 144 140 134 136 133 130 129 132 133 135 136 137 140 137 134 131
52 55 48 42 34 11 31 48 55 54 71 46 56 74 125 146 159 167 170 173 175 176 176 175 173 172 171 169 166 162 158 158 159 153 151 147 146 143 137 135 136 138 137 140 141 145 146 142 135
50 47 27 356 340 356 10 32 44 57 67 51 72 108 136 147 158 168 174 178 179 180 181 183 181 179 176 175 173 171 167 161 163 161 156 157 157 157 152 144 143 143 147 147 149 149 152 156 152
2 342 332 337 348 14 17 46 47 50 49 32 98 115 133 147 156 167 172 177 182 184 186 187 187 186 184 181 181 179 176 172 170 170 170 162 165 167 165 160 154 154 154 156 162 162 162 169 167
307 328 328 309 323 350 38 20 17 24 30 83 109 122 131 142 157 163 171 176 181 187 190 194 194 192 190 188 187 187 186 183 179 178 177 180 175 175 177 175 172 168 165 163 167 172 175 175 178
317 319 319 338 325 3 333 326 341 31 74 112 132 141 143 144 152 160 171 177 183 189 194 195 198 198 196 194 193 191 189 189 189 188 187 184 181 181 185 187 187 183 178 177 181 183 191 197 195
313 336 2 7 340 312 336 291 279 131 140 141 164 166 166 166 161 171 175 180 187 192 196 202 204 202 202 201 200 199 198 197 197 197 194 189 185 184 187 194 194 193 194 197 198 199 210 215 228
326 327 349 358 5 338 318 301 330 218 199 198 192 189 191 190 187 186 189 193 196 199 204 205 208 205 205 204 204 204 203 203 203 202 199 197 196 193 193 191 192 199 204 210 217 222 234 243 253
318 305 325 340 354 344 318 302 323 246 237 217 210 207 202 204 210 208 205 204 207 209 211 212 211 207 204 206 206 208 208 208 207 204 204 203 205 206 207 207 210 215 222 226 236 246 266 258 277
276 282 290 303 320 312 306 294 299 267 237 232 221 217 215 217 217 216 217 218 219 217 216 218 219 201 201 204 206 209 211 210 210 208 208 208 210 213 217 221 223 226 231 235 243 253 265 264 269
260 266 280 289 302 307 313 304 302 275 243 232 224 225 223 225 225 224 224 227 224 222 217 214 207 198 200 203 205 208 211 210 211 211 213 215 216 218 221 224 227 229 234 241 248 256 258 265 261
257 267 273 272 295 301 311 306 320 271 258 246 240 239 232 230 228 227 225 225 222 219 215 210 206 201 203 205 207 210 212 214 214 215 218 220 224 227 230 230 232 233 237 244 248 253 260 260 249
250 253 263 270 290 281 301 290 305 292 280 275 257 248 241 231 228 227 224 225 222 220 214 210 208 206 205 206 208 212 214 217 219 222 225 227 230 234 235 235 235 237 242 249 249 252 255 255 250
254 245 253 266 282 278 298 290 291 300 294 279 268 253 249 239 231 227 224 223 220 219 215 215 212 210 212 212 214 216 218 220 222 225 227 229 231 234 236 236 238 240 244 248 248 253 253 254 250
253 239 255 258 263 273 267 274 280 294 294 298 305 270 257 243 229 225 223 223 220 217 214 212 212 212 212 214 216 220 224 227 228 231 232 232 234 236 239 239 240 242 244 247 248 252 251 254 250
238 244 247 250 257 261 274 270 275 276 276 298 300 302 264 251 226 225 223 225 221 217 214 212 211 212 212 214 216 220 222 226 229 232 233 235 236 239 242 243 242 244 245 248 252 252 256 255 253
238 241 247 247 248 259 261 267 272 276 275 285 293 284 266 252 228 221 216 216 217 213 210 209 209 212 214 217 220 222 226 229 232 234 236 237 240 242 244 244 244 248 250 253 256 257 256 256 257
234 237 241 247 250 256 254 265 277 267 279 282 276 271 274 256 230 216 210 208 208 206 204 205 206 211 212 218 222 226 230 233 235 236 237 239 244 247 248 247 248 252 254 256 259 262 261 259 260
229 233 243 243 255 260 263 266 282 269 249 272 275 276 285 259 229 214 207 204 201 199 199 198 202 207 210 214 219 224 229 233 236 237 240 244 247 251 251 249 252 254 257 259 263 265 265 272 273
237 226 236 245 248 255 252 261 268 270 263 273 287 299 299 258 222 210 201 201 202 200 199 200 205 207 209 212 218 223 227 233 237 239 242 246 249 252 256 253 253 255 258 263 257 268 266 270 265
232 237 242 242 249 253 257 255 255 261 261 266 274 287 301 258 225 211 209 208 204 204 204 207 210 211 211 214 217 224 231 235 239 241 244 247 250 251 256 255 252 253 257 264 262 263 271 265 264
244 233 232 247 240 248 258 251 251 265 269 269 271 276 283 270 233 221 213 210 210 209 209 212 213 215 215 215 218 227 233 235 239 243 245 246 252 254 252 251 254 253 254 263 267 265 266 262 265